Location: ??????
(38.0131°N, 23.7723°E)
Time: 05:13:45
(UTC+00:00)

IRS-P2 Rocket - Pass Details

Date: 17 October 2021
Orbit: 794 x 876 km, 99.1° (Epoch: 28 November)

Event Time Altitude Azimuth Distance (km) Brightness Sun altitude
Exits shadow 17:53:45 75° 145° (SE) 836 4.4 -26.2°
Maximum altitude 17:54:11 85° 75° (ENE) 814 4.4 -26.3°
Drops below altitude 10° 17:59:27 10° 348° (NNW) 2,378 7.3 -27.3°
Sets 18:01:46 0° 347° (NNW) 3,307 8.1 -27.7°
